Location: *
(51.1248°S, 108.4023°W)
Time: 04:22:36
(UTC+00:00)

MOS 1 Rocket - Visible Passes

Search period start: 26 October 2021 00:00
Search period end: 05 November 2021 00:00
Orbit: 614 x 829 km, 97.4° (Epoch: 25 October)

Date Brightness Start Highest point End Pass type
(mag) Time Alt. Az. Time Alt. Az. Time Alt. Az.
27 Oct 6.0 10:24:35 10° SE 10:27:17 15° E 10:29:54 10° ENE visible
29 Oct 5.9 10:24:09 10° SE 10:26:48 15° E 10:29:24 10° ENE visible
31 Oct 5.9 10:23:42 10° SE 10:26:20 15° E 10:28:54 10° ENE visible
02 Nov 5.9 10:23:14 10° SE 10:25:51 15° E 10:28:25 10° ENE visible
04 Nov 5.9 10:22:46 10° SE 10:25:22 15° E 10:27:56 10° ENE visible
